Terug naar catalogus

STARLINK-35771

ActiefCommunicatieVLEO
NORAD 67171·PAYLOAD·🇺🇸 United States

Gelanceerd Dec 17, 2025 vanaf Cape Canaveral Space Force Station

Loading…

Volgende Passages (komende 24 uur)

TLE

VersSource: CelesTrak SupGP

Epoch: Sep 15, 2026, 03:54 UTC

1 67171C 25303J   26258.16298611  .00030281  00000+0  10963-2 0  2584
2 67171  43.0004 321.0167 0001282 263.0790 278.2831 15.27578177    17

Volg STARLINK-35771 in realtime met AllMySat

Download on the App Store